Retour au catalogue

STARLINK-3753

ActifCommunicationsVLEO
NORAD 52292·PAYLOAD·🇺🇸 United States

Lancé Apr 21, 2022 depuis Cape Canaveral Space Force Station

Loading…

Prochains Passages (prochaines 24 heures)

TLE

FraisSource: CelesTrak SupGP

Époque: Sep 14, 2026, 22:21 UTC

1 52292C 22041AH  26257.93173611  .00006585  00000+0  19456-3 0  2570
2 52292  53.1596 317.4026 0000305  42.8564 128.3068 15.34384313    15

Suivez STARLINK-3753 en temps réel avec AllMySat

Download on the App Store